Zurück zum Katalog

STARLINK-32404

AktivKommunikationVLEO
NORAD 61710·PAYLOAD·🇺🇸 United States

Gestartet Oct 30, 2024 von Cape Canaveral Space Force Station

Loading…

Nächste Überflüge (nächste 24 Stunden)

TLE

AktuellSource: CelesTrak SupGP

Epoche: Sep 15, 2026, 02:43 UTC

1 61710C 24196D   26258.11368056  .00028728  00000+0  84891-3 0  2587
2 61710  53.1594 298.9517 0001026  84.2609 288.9568 15.34370986    16

Verfolge STARLINK-32404 in Echtzeit mit AllMySat

Download on the App Store